20040601,102
20040602,102
20040603,112
20040604,112
20040607,112
20040608,112
20040609,111
20040610,111
20040611,111
20040614,111
20040615,111
20040616,111
20040617,110
20040618,111
20040621,111
20040622,711
20040623,709
20040624,708
20040625,722
20040628,722
20040629,722
20040630,736
20040701,732
20040702,736
20040705,737
20040706,737
20040707,738
20040708,742
20040709,739
20040712,741
20040713,742
20040714,741
20040715,740
20040716,743
20040720,744
20040721,747
20040722,747
20040723,748
20040726,749
20040727,758
20040728,757
20040729,760
20040730,763
20040802,763
20040803,766
20040804,771
20040805,780
20040806,783
20040809,799
20040810,799
20040811,820
20040812,821
20040813,830
20040816,834
20040817,843
20040818,846
20040819,845
20040820,847
20040823,845
20040824,846
20040825,844
20040826,531
20040827,533
20040830,538
20040831,538
20040901,541
20040902,540
20040903,538
20040906,536
20040907,534
20040908,535
20040909,538
20040910,539
20040913,539
20040914,538
20040915,543
20040916,538
20040917,539
20040921,540
20040922,540
20040924,544
20040927,544
20040928,544
20040929,544
20040930,543
20041001,541
20041004,560
20041005,666
20041006,669
20041007,670
20041008,675
20041012,689
20041013,694
20041014,804
20041015,805
20041018,824
20041019,825
20041020,829
20041021,832
20041022,829
20041025,834
20041026,843
20041027,847
20041028,3846
20041029,3848
20041101,3841
20041102,3831
20041104,3845
20041105,3846
20041108,3842
20041109,3853
20041110,3863
20041111,3881
20041112,3875
20041115,3876
20041116,3880
20041117,3884
20041118,3935
20041119,3935
20041122,3945
20041124,3949
20041125,3949
20041126,3941
20041129,3936
20041130,3938
20041201,3946
20041202,3955
20041203,3957
20041206,3960
20041207,3975
20041208,3976
20041209,3982
20041210,3987
20041213,3996
20041214,4007
20041215,4010
20041216,4012
20041217,4005
20041220,4012
20041221,4026
20041222,4031
20041224,4032
20041227,4020
20041228,4022
20041229,4024
20041230,4022
20050104,4044
20050105,4045
20050106,4051
20050107,4053
20050111,4060
20050112,4076
20050113,4076
20050114,4075
20050117,4069
20050118,4082
20050119,4087
20050120,4087
20050121,4095
20050124,4102
20050125,4109
20050126,4109
20050127,4111
20050128,4133
20050131,4127
20050201,4139
20050202,4150
20050203,4141
20050204,4148
20050207,4149
20050208,4147
20050209,4134
20050210,4121
20050214,4111
20050215,4113
20050216,4149
20050217,4168
20050218,4170
20050221,4266
20050222,4286
20050223,4307
20050224,4312
20050225,3969
20050228,3964
20050301,3976
20050302,3976
20050303,3978
20050304,3984
20050307,3981
20050308,4033
20050309,4070
20050310,4102
20050311,4130
20050314,4155
20050315,4177
20050316,4197
20050317,4239
20050318,4253
20050322,4278
20050323,4313
20050324,4334
20050325,4339
20050328,4372
20050329,4412
20050330,4453
20050331,4471
20050401,4473
20050404,4499
20050405,4505
20050406,4508
20050407,4548
20050408,4551
20050411,4566
20050412,4582
20050413,4598
20050414,4633
20050415,4658
20050418,4679
20050419,4680
20050420,4689
20050421,4738
20050422,4725
20050425,4750
20050426,4770
20050427,4784
20050428,4806
20050502,4825
20050506,4842
20050509,4918
20050510,4963
20050511,4954
20050512,5028
20050513,5035
20050516,5041
20050517,5063
20050518,5092
20050519,5103
20050520,5108
20050523,5101
20050524,5143
20050525,5173
20050526,5210
20050527,5235
20050530,5263
20050531,5281
20050601,5343
20050602,5347
20050603,5382
20050606,5372
20050607,5335
20050608,5330
20050609,5346
20050610,5366
20050613,5358
20050614,5352
20050615,5365
20050616,5144
20050617,5144
20050620,5158
20050621,5189
20050622,5215
20050623,5238
20050624,5262
20050627,5315
20050628,5329
20050629,5343
20050630,5454
20050701,5556
20050704,5535
20050705,5533
20050706,5543
20050707,5559
20050708,5563
20050711,5551
20050712,5554
20050713,5544
20050714,5553
20050715,5550
20050719,5574
20050720,5594
20050721,5612
20050722,5633
20050725,5643
20050726,5709
20050727,5712
20050728,5766
20050729,5721
20050801,5837
20050802,5839
20050803,5843
20050804,5835
20050805,5837
20050808,5825
20050809,5808
20050810,5798
20050811,5769
20050812,5817
20050815,5820
20050816,5813
20050817,5837
20050818,5844
20050819,5856
20050822,5833
20050823,5835
20050824,5848
20050825,5843
20050826,5845
20050829,5869
20050830,5869
20050831,5915
20050901,5966
20050902,5990
20050905,5975
20050906,5995
20050907,6007
20050908,6026
20050909,6031
20050912,6023
20050913,6028
20050914,6048
20050915,6065
20050916,6064
20050920,6060
20050921,6080
20050922,6197
20050926,6173
20050927,6182
20050928,6174
20050929,6175
20050930,6223
20051003,6226
20051004,6207
20051005,6273
20051006,6259
20051007,6240
20051011,6240
20051012,6258
20051013,6257
20051014,6259
20051017,6261
20051018,6282
20051019,6312
20051020,6310
20051021,6312
20051024,6317
20051025,6286
20051026,6276
20051027,6310
20051028,6339
20051031,6368
20051101,6437
20051102,6427
20051104,6426
20051107,6390
20051108,6396
20051109,6416
20051110,6417
20051111,6419
20051114,6437
20051115,6465
20051116,6442
20051117,6461
20051118,6470
20051121,6458
20051122,6462
20051124,6473
20051125,6478
20051128,6471
20051129,6466
20051130,6553
20051201,6560
20051202,6596
20051205,6588
20051206,6603
20051207,6618
20051208,6642
20051209,6631
20051212,6610
20051213,6619
20051214,6640
20051215,6659
20051216,6652
20051219,6743
20051220,6759
20051221,6751
20051222,6763
20051226,6795
20051227,6845
20051228,6850
20051229,6894
20051230,6957
20060104,7014
20060105,7004
20060106,6991
20060110,7001
20060111,6989
20060112,6996
20060113,7041
20060116,7042
20060117,7092
20060118,7180
20060119,7042
20060120,7027
20060123,7036
20060124,7062
20060125,7050
20060126,7041
20060127,7021
20060130,7020
20060131,7025
20060201,7025
20060202,7024
20060203,7007
20060206,7023
20060207,7022
20060208,7025
20060209,7015
20060210,6990
20060213,6994
20060214,6981
20060215,6987
20060216,6997
20060217,7012
20060220,6998
20060221,7006
20060222,7011
20060223,6997
20060224,7001
20060227,7006
20060228,7023
20060301,7047
20060302,7020
20060303,7033
20060306,7061
20060307,7102
20060308,7127
20060309,7202
20060310,7267
20060313,7286
20060314,7304
20060315,7293
20060316,7367
20060317,7421
20060320,7465
20060322,7519
20060323,7556
20060324,7584
20060327,7608
20060328,7639
20060329,7636
20060330,7786
20060331,7926
20060403,7988
20060404,7990
20060405,7993
20060406,7976
20060407,7996
20060410,7808
20060411,7824
20060412,7846
20060413,7814
20060414,7817
20060417,7826
20060418,7827
20060419,7876
20060420,7895
20060421,7911
20060424,7946
20060425,7971
20060426,8005
20060427,8033
20060428,8109
20060501,8157
20060502,8158
20060508,8117
20060509,8131
20060510,8117
20060511,8140
20060512,8153
20060515,8139
20060516,8163
20060517,8200
20060518,8185
20060519,8209
20060522,8248
20060523,8265
20060524,8266
20060525,8241
20060526,8354
20060529,8419
20060530,8555
20060531,8601
20060601,8568
20060602,8602
20060605,8751
20060606,8721
20060607,8769
20060608,8777
20060609,8794
20060612,8796
20060613,8837
20060614,8843
20060615,8897
20060616,8890
20060619,8897
20060620,8862
20060621,8865
20060622,8857
20060623,8862
20060626,8872
20060627,8879
20060628,8870
20060629,8875
20060630,8886
20060703,8903
20060704,8915
20060705,8905
20060706,8924
20060707,8967
20060710,8972
20060711,8996
20060712,9010
20060713,9028
20060714,9084
20060718,9091
20060719,9105
20060720,9181
20060721,9175
20060724,9210
20060725,9206
20060726,9256
20060727,9300
20060728,9287
20060731,9324
20060801,9351
20060802,9381
20060803,9388
20060804,9363
20060807,9411
20060808,9429
20060809,9434
20060810,9419
20060811,9496
20060814,9475
20060815,9498
20060816,9533
20060817,9561
20060818,9535
20060821,9587
20060822,9642
20060823,9667
20060824,9670
20060825,9696
20060828,9625
20060829,9607
20060830,9649
20060831,9679
20060901,9692
20060904,9673
20060905,9663
20060906,9671
20060907,9685
20060908,9744
20060911,9889
20060912,9878
20060913,9884
20060914,9896
20060915,9908
20060919,9892
20060920,9903
20060921,9879
20060922,9902
20060925,9854
20060926,9894
20060927,9871
20060928,9906
20060929,9902
20061002,9850
20061003,9858
20061004,9825
20061005,9849
20061006,9865
20061010,9859
20061011,9744
20061012,9735
20061013,9733
20061016,9731
20061017,9736
20061018,9739
20061019,9736
20061020,9750
20061023,9734
20061024,9740
20061025,9798
20061026,9824
20061027,9837
20061030,9845
20061031,9840
20061101,9843
20061102,9846
20061106,9813
20061107,9822
20061108,9858
20061109,9876
20061110,9884
20061113,9881
20061114,9827
20061115,9816
20061116,9857
20061117,9852
20061120,9888
20061121,9892
20061122,9909
20061124,9910
20061127,9904
20061128,9915
20061129,9888
20061130,9925
20061201,9947
20061204,10030
20061205,10033
20061206,10031
20061207,10011
20061208,10004
20061211,10019
20061212,10034
20061213,10059
20061214,10022
20061215,9981
20061218,9963
20061219,9993
20061220,10003
20061221,10007
20061222,10008
20061225,9982
20061226,9984
20061227,9929
20061228,9902
20061229,9908
20070104,9894
20070105,9909
20070109,9899
20070110,9881
20070111,9882
20070112,9876
20070115,9925
20070116,9911
20070117,9958
20070118,9934
20070119,9971
20070122,9971
20070123,9957
20070124,9961
20070125,9978
20070126,9939
20070129,9890
20070130,9895
20070131,9904
20070201,9901
20070202,9911
20070205,9925
20070206,9876
20070207,9874
20070208,9873
20070209,9906
20070213,9862
20070214,9865
20070215,9857
20070216,9887
20070219,9874
20070220,9884
20070221,9888
20070222,9917
20070223,9912
20070226,9929
20070227,9967
20070228,9960
20070301,9930
20070302,9903
20070305,9935
20070306,9930
20070307,9919
20070308,9916
20070309,9926
20070312,9907
20070313,9915
20070314,9948
20070315,9948
20070316,9952
20070319,9968
20070320,9967
20070322,9969
20070323,10017
20070326,9993
20070327,10033
20070328,10014
20070329,10068
20070330,10060
20070402,10052
20070403,10054
20070404,10028
20070405,10037
20070406,10043
20070409,10017
20070410,10017
20070411,10060
20070412,10052
20070413,10066
20070416,10039
20070417,10032
20070418,10001
20070419,10034
20070420,10015
20070423,10020
20070424,10040
20070425,10040
20070426,10031
20070427,10060
20070501,10089
20070502,10077
20070507,10069
20070508,10062
20070509,10035
20070510,10041
20070511,10063
20070514,10047
20070515,10036
20070516,10041
20070517,10061
20070518,10045
20070521,10036
20070522,10038
20070523,10004
20070524,9994
20070525,9978
20070528,9975
20070529,9969
20070530,9986
20070531,9979
20070601,9978
20070604,9966
20070605,9929
20070606,9946
20070607,9944
20070608,9928
20070611,9910
20070612,9898
20070613,9871
20070614,9868
20070615,9822
20070618,9851
20070619,9834
20070620,9867
20070621,9854
20070622,9899
20070625,9901
20070626,9895
20070627,9910
20070628,9869
20070629,9874
20070702,9871
20070703,9844
20070704,9817
20070705,9795
20070706,9819
20070709,9807
20070710,9793
20070711,9837
20070712,10325
20070713,10299
20070717,10275
20070718,10283
20070719,10233
20070720,10252
20070723,10268
20070724,10258
20070725,10245
20070726,10247
20070727,10297
20070730,10272
20070731,10291
20070801,10339
20070802,10297
20070803,10320
20070806,10332
20070807,10341
20070808,10306
20070809,10286
20070810,10326
20070813,10298
20070814,10338
20070815,10387
20070816,10384
20070817,10455
20070820,10389
20070821,10337
20070822,9806
20070823,9815
20070824,9792
20070827,9781
20070828,9785
20070829,9785
20070830,9788
20070831,9758
20070903,9757
20070904,9779
20070905,9779
20070906,9785
20070907,9793
20070910,9843
20070911,9833
20070912,9845
20070913,9798
20070914,9782
20070918,9781
20070919,9763
20070920,9746
20070921,9711
20070925,9666
20070926,9660
20070927,9637
20070928,9668
20071001,9684
20071002,9645
20071003,9656
20071004,9636
20071005,9664
20071009,9657
20071010,9658
20071011,9654
20071012,9630
20071015,9611
20071016,9623
20071017,9664
20071018,9677
20071019,9713
20071022,9706
20071023,9671
20071024,9679
20071025,9676
20071026,9671
20071029,9691
20071030,9585
20071031,9598
20071101,9564
20071102,9626
20071105,9606
20071106,9551
20071107,9565
20071108,9587
20071109,9596
20071112,9594
20071113,9597
20071114,9576
20071115,9554
20071116,9551
20071119,9553
20071120,9507
20071121,9522
20071122,9492
20071126,9440
20071127,9447
20071128,9472
20071129,9472
20071130,9482
20071203,9490
20071204,9496
20071205,9449
20071206,9396
20071207,9374
20071210,9381
20071211,9357
20071212,9381
20071213,9393
20071214,9395
20071217,9377
20071218,9398
20071219,9438
20071220,9416
20071221,9401
20071225,9388
20071226,9412
20071227,9419
20071228,9475
20080104,9533
20080107,9555
20080108,9553
20080109,9542
20080110,9564
20080111,9568
20080115,9570
20080116,9594
20080117,9564
20080118,9560
20080121,9591
20080122,9625
20080123,9608
20080124,9575
20080125,9548
20080128,9583
20080129,9552
20080130,9555
20080131,9550
20080201,9558
20080204,9530
20080205,9478
20080206,9531
20080207,9508
20080208,9508
20080212,9523
20080213,9505
20080214,9490
20080215,9512
20080218,9523
20080219,9529
20080220,9548
20080221,9508
20080222,9536
20080225,9518
20080226,9545
20080227,9540
20080228,9577
20080229,9598
20080303,9606
20080304,9578
20080305,9660
20080306,9655
20080307,9636
20080310,9557
20080311,9561
20080312,9579
20080313,9615
20080314,9607
20080317,9577
20080318,9519
20080319,9515
20080321,9485
20080324,9465
20080325,9427
20080326,9406
20080327,9425
20080328,9461
20080331,9470
20080401,9419
20080402,9412
20080403,9434
20080404,9453
20080407,9454
20080408,9478
20080409,9491
20080410,9516
20080411,9506
20080414,9530
20080415,9570
20080416,9572
20080417,9550
20080418,9539
20080421,9498
20080422,9507
20080423,9557
20080424,9554
20080425,9518
20080428,9483
20080430,9464
20080501,9468
20080502,9426
20080507,9418
20080508,9453
20080509,9521
20080512,9520
20080513,9505
20080514,9471
20080515,9489
20080516,9503
20080519,9528
20080520,9524
20080521,9529
20080522,9498
20080523,9432
20080526,9438
20080527,9434
20080528,9469
20080529,9454
20080530,9483
20080602,9462
20080603,9545
20080604,9506
20080605,9543
20080606,9523
20080609,9586
20080610,9525
20080611,9492
20080612,9525
20080613,9461
20080616,9491
20080617,9532
20080618,9577
20080619,9562
20080620,9577
20080623,9598
20080624,9588
20080625,9599
20080626,9623
20080627,9665
20080630,9713
20080701,9726
20080702,9742
20080703,9741
20080704,9779
20080707,9724
20080708,9732
20080709,9715
20080710,9718
20080711,9706
20080714,9739
20080715,9771
20080716,9762
20080717,9730
20080718,9689
20080722,9651
20080723,9630
20080724,9559
20080725,9638
20080728,9645
20080729,9676
20080730,9713
20080731,9764
20080801,9775
20080804,9791
20080805,9752
20080806,9776
20080807,9792
20080808,9824
20080811,9766
20080812,9770
20080813,9780
20080814,9826
20080815,9810
20080818,9813
20080819,9817
20080820,9806
20080821,9826
20080822,9819
20080825,9816
20080826,9782
20080827,9760
20080828,9786
20080829,9774
20080901,9742
20080902,9727
20080903,9746
20080904,9722
20080905,9777
20080908,9737
20080909,9761
20080910,9735
20080911,9712
20080912,9702
20080916,9592
20080917,9555
20080918,9446
20080919,9509
20080922,9499
20080924,9448
20080925,9362
20080926,9379
20080929,9379
20080930,9360
20081001,9345
20081002,9292
20081003,9265
20081006,9213
20081007,9060
20081008,9040
20081009,8829
20081010,8676
20081014,8459
20081015,8446
20081016,8436
20081017,8452
20081020,8538
20081021,8762
20081022,8912
20081023,8808
20081024,8687
20081027,8588
20081028,8499
20081029,8498
20081030,8491
20081031,8475
20081104,8454
20081105,8447
20081106,8463
20081107,8523
20081110,8516
20081111,8508
20081112,8494
20081113,8487
20081114,8522
20081117,8563
20081118,8572
20081119,8572
20081120,8561
20081121,8497
20081125,8437
20081126,8408
20081127,8400
20081128,8332
20081201,8290
20081202,8194
20081203,8188
20081204,8194
20081205,8126
20081208,7935
20081209,7753
20081210,7743
20081211,7783
20081212,8094
20081215,8167
20081216,8165
20081217,8226
20081218,8274
20081219,8368
20081222,8508
20081224,8482
20081225,8455
20081226,8465
20081229,8596
20081230,8569
20090105,8569
20090106,8559
20090107,8545
20090108,8592
20090109,8585
20090113,8551
20090114,8543
20090115,8540
20090116,8539
20090119,8532
20090120,8548
20090121,8523
20090122,8515
20090123,8522
20090126,8527
20090127,8556
20090128,8557
20090129,8553
20090130,8521
20090202,8462
20090203,8375
20090204,8268
20090205,8271
20090206,8239
20090209,8224
20090210,8123
20090212,8078
20090213,8006
20090216,8020
20090217,8037
20090218,8137
20090219,8171
20090220,8146
20090223,8103
20090224,8015
20090225,8018
20090226,8011
20090227,8037
20090302,8061
20090303,8091
20090304,8093
20090305,8099
20090306,8091
20090309,8097
20090310,8099
20090311,8089
20090312,8050
20090313,8074
20090316,8077
20090317,8108
20090318,8152
20090319,8221
20090323,8287
20090324,8412
20090325,8352
20090326,8300
20090327,8257
20090330,8235
20090331,8248
20090401,8330
20090402,8319
20090403,8327
20090406,8336
20090407,8351
20090408,8366
20090409,8459
20090410,8450
20090413,8450
20090414,8442
20090415,8489
20090416,8481
20090417,8479
20090420,8473
20090421,8477
20090422,8478
20090423,8482
20090424,8483
20090427,8472
20090428,8467
20090430,8457
20090501,8458
20090507,8457
20090508,8420
20090511,8416
20090512,8405
20090513,8395
20090514,8403
20090515,8408
20090518,8408
20090519,8367
20090520,8355
20090521,8325
20090522,8316
20090525,8268
20090526,8204
20090527,8121
20090528,8163
20090529,8188
20090601,8199
20090602,8209
20090603,8222
20090604,8212
20090605,8192
20090608,8196
20090609,8244
20090610,8280
20090611,8311
20090612,8284
20090615,8289
20090616,8301
20090617,8301
20090618,8304
20090619,8303
20090622,8310
20090623,8312
20090624,8316
20090625,8324
20090626,8331
20090629,8237
20090630,8279
20090701,8310
20090702,8338
20090703,8363
20090706,8431
20090707,8490
20090708,8485
20090709,8421
20090710,8411
20090713,8415
20090714,8393
20090715,8410
20090716,8443
20090717,8457
20090721,8457
20090722,8460
20090723,8448
20090724,8429
20090727,8463
20090728,8487
20090729,8492
20090730,8520
20090731,8513
20090803,8504
20090804,8476
20090805,8447
20090806,8361
20090807,8370
20090810,8366
20090811,8377
20090812,8377
20090813,8378
20090814,8382
20090817,8385
20090818,8392
20090819,8403
20090820,8414
20090821,8410
20090824,8427
20090825,8443
20090826,8452
20090827,8481
20090828,8496
20090831,8504
20090901,8525
20090902,8548
20090903,8560
20090904,8564
20090907,8550
20090908,8547
20090909,8548
20090910,8542
20090911,8542
20090914,8534
20090915,8532
20090916,8559
20090917,8557
20090918,8569
20090924,8582
20090925,8552
20090928,8544
20090929,8536
20090930,8549
20091001,8562
20091002,8573
20091005,8574
20091006,8573
20091007,8548
20091008,8545
20091009,8538
20091013,8532
20091014,8522
20091015,8517
20091016,8510
20091019,8506
20091020,8502
20091021,8489
20091022,8489
20091023,8481
20091026,8481
20091027,8494
20091028,8493
20091029,8489
20091030,8489
20091102,8474
20091104,8472
20091105,8460
20091106,8474
20091109,8478
20091110,8494
20091111,8525
20091112,8544
20091113,8574
20091116,8597
20091117,8628
20091118,8624
20091119,8598
20091120,8574
20091124,8531
20091125,8522
20091126,8577
20091127,8586
20091130,8585
20091201,8583
20091202,8587
20091203,8585
20091204,8574
20091207,8572
20091208,8581
20091209,8575
20091210,8568
20091211,8560
20091214,8556
20091215,8551
20091216,8520
20091217,8540
20091218,8582
20091221,8632
20091222,8636
20091224,8618
20091225,8612
20091228,8605
20091229,8562
20091230,8576
20100104,8573
20100105,8611
20100106,8619
20100107,8611
20100108,8592
20100112,8563
20100113,8550
20100114,8574
20100115,8613
20100118,8616
20100119,8547
20100120,8533
20100121,8537
20100122,8450
20100125,8433
20100126,8413
20100127,8412
20100128,8409
20100129,8435
20100201,8432
20100202,8415
20100203,8402
20100204,8390
20100205,8392
20100208,8396
20100209,8390
20100210,8363
20100212,8348
20100215,8337
20100216,8327
20100217,8333
20100218,8339
20100219,8341
20100222,8351
20100223,8328
20100224,8316
20100225,8299
20100226,8292
20100301,8287
20100302,8290
20100303,8283
20100304,8266
20100305,8259
20100308,8246
20100309,8265
20100310,8294
20100311,8304
20100312,8316
20100315,8303
20100316,8301
20100317,8296
20100318,8293
20100319,8278
20100323,8277
20100324,8295
20100325,8265
20100326,8274
20100329,8272
20100330,8266
20100331,8265
20100401,8280
20100402,8308
20100405,8301
20100406,8305
20100407,8307
20100408,8303
20100409,8292
20100412,8302
20100413,8322
20100414,8324
20100415,8327
20100416,8318
20100419,8326
20100420,8338
20100421,8335
20100422,8334
20100423,8327
20100426,8324
20100427,8339
20100428,8347
20100430,8344
20100506,8346
20100507,8345
20100510,8342
20100511,8339
20100512,8334
20100513,8332
20100514,8336
20100517,8340
20100518,8351
20100519,8345
20100520,8346
20100521,8315
20100524,8294
20100525,8293
20100526,8220
20100527,8174
20100528,8090
20100531,8086
20100601,8084
20100602,8096
20100603,8109
20100604,8118
20100607,8123
20100608,8124
20100609,8102
20100610,8100
20100611,8106
20100614,8098
20100615,8101
20100616,8110
20100617,8113
20100618,8132
20100621,8165
20100622,8218
20100623,8221
20100624,8221
20100625,8216
20100628,8202
20100629,8178
20100630,8168
20100701,8150
20100702,8149
20100705,8144
20100706,8136
20100707,8135
20100708,8146
20100709,8146
20100712,8125
20100713,8126
20100714,8132
20100715,8152
20100716,8156
20100720,8155
20100721,8124
20100722,8126
20100723,8116
20100726,8160
20100727,8176
20100728,8175
20100729,8173
20100730,8172
20100802,8179
20100803,8174
20100804,8178
20100805,8189
20100806,8184
20100809,8200
20100810,8202
20100811,8208
20100812,8191
20100813,8175
20100816,8177
20100817,8166
20100818,8164
20100819,8152
20100820,8152
20100823,8156
20100824,8147
20100825,8142
20100826,8133
20100827,8132
20100830,8123
20100831,8132
20100901,8109
20100902,8103
20100903,8045
20100906,8036
20100907,8045
20100908,8047
20100909,8058
20100910,8074
20100913,8066
20100914,8073
20100915,8078
20100916,8060
20100917,8039
20100921,8028
20100922,8031
20100924,8044
20100927,8014
20100928,8030
20100929,8024
20100930,8017
20101001,8018
20101004,8026
20101005,8012
20101006,8018
20101007,8014
20101008,8014
20101012,8014
20101013,8001
20101014,7988
20101015,7980
20101018,7981
20101019,7972
20101020,7962
20101021,7960
20101022,7922
20101025,7914
20101026,7913
20101027,7935
20101028,7944
20101029,7942
20101101,7938
20101102,7943
20101104,7951
20101105,7960
20101108,7959
20101109,7956
20101110,7953
20101111,7949
20101112,7960
20101115,7954
20101116,7961
20101117,7956
20101118,7884
20101119,7885
20101122,7883
20101124,7875
20101125,7861
20101126,7852
20101129,7838
20101130,7842
20101201,7857
20101202,7874
20101203,7884
20101206,7897
20101207,7924
20101208,7908
20101209,7889
20101210,7873
20101213,7872
20101214,7868
20101215,7852
20101216,7857
20101217,7869
20101220,7879
20101221,7883
20101222,4982
20101224,4980
20101227,4951
20101228,4958
20101229,4967
20101230,4977
20110104,5025
20110105,5034
20110106,5035
20110107,4994
20110111,4991
20110112,4984
20110113,4983
20110114,4983
20110117,4979
20110118,4973
20110119,4971
20110120,4977
20110121,4984
20110124,4985
20110125,4984
20110126,4983
20110127,4989
20110128,4996
20110131,5025
20110201,5024
20110202,5027
20110203,5027
20110204,5027
20110207,5028
20110208,5026
20110209,5025
20110210,5028
20110214,4997
20110215,4990
20110216,4991
20110217,4994
20110218,4995
20110221,4983
20110222,4986
20110223,4985
20110224,5003
20110225,5003
20110228,4998
20110301,4984
20110302,4980
20110303,4978
20110304,4976
20110307,4967
20110308,4972
20110309,4970
20110310,4968
20110311,4958
20110314,4994
20110315,4963
20110316,4955
20110317,4941
20110318,4927
20110322,4923
20110323,4922
20110324,4927
20110325,4918
20110328,4916
20110329,4880
20110330,4878
20110331,4880
20110401,4887
20110404,4897
20110405,4912
20110406,4922
20110407,4923
20110408,4927
20110411,4920
20110412,4927
20110413,4929
20110414,4928
20110415,4925
20110418,4924
20110419,4922
20110420,4922
20110421,4951
20110422,4948
20110425,4939
20110426,4944
20110427,4938
20110428,4952
20110502,4959
20110506,4966
20110509,4992
20110510,5001
20110511,5005
20110512,4997
20110513,4997
20110516,4997
20110517,5002
20110518,5004
20110519,5008
20110520,5011
20110523,5008
20110524,5009
20110525,5017
20110526,5022
20110527,5038
20110530,5045